Location: Bennemühlen
(52.5740°N, 9.7135°E)
Time: 14:40:49
(UTC+00:00)

Vanguard 2 - Pass Details

Date: 25 February 2026
Orbit: 553 x 2896 km, 32.9° (Epoch: 14 March)

Event Time Altitude Azimuth Distance (km) Brightness Sun altitude
Exits shadow 03:46:07 12° 192° (SSW) 2,887 10.2 -23.5°
Maximum altitude 03:47:21 13° 181° (S) 2,726 10.1 -23.3°
Drops below altitude 10° 03:50:01 10° 156° (SSE) 2,664 10.4 -22.9°
Sets 03:53:45 0° 127° (SE) 3,249 11.3 -22.4°
